Year,Month,Day,Hour,Minute,Value (Times are PST for temperature in C)
2006,09,23,00,00,9.50
2006,09,23,00,01,9.50
2006,09,23,00,02,9.50
2006,09,23,00,03,9.40
2006,09,23,00,04,9.40
2006,09,23,00,05,9.40
2006,09,23,00,06,9.40
2006,09,23,00,07,9.40
2006,09,23,00,08,9.40
2006,09,23,00,09,9.40
2006,09,23,00,10,9.40
2006,09,23,00,11,9.30
2006,09,23,00,12,9.30
2006,09,23,00,13,9.30
2006,09,23,00,14,9.30
2006,09,23,00,15,9.30
2006,09,23,00,16,9.30
2006,09,23,00,17,9.30
2006,09,23,00,18,9.20
2006,09,23,00,19,9.20
2006,09,23,00,20,9.20
2006,09,23,00,21,9.20
2006,09,23,00,22,9.10
2006,09,23,00,23,9.10
2006,09,23,00,24,9.00
2006,09,23,00,25,9.00
2006,09,23,00,26,8.90
2006,09,23,00,27,8.90
2006,09,23,00,28,8.90
2006,09,23,00,29,8.90
2006,09,23,00,30,8.90
2006,09,23,00,31,8.80
2006,09,23,00,32,8.80
2006,09,23,00,33,8.80
2006,09,23,00,34,8.80
2006,09,23,00,35,8.80
2006,09,23,00,36,8.80
2006,09,23,00,37,8.80
2006,09,23,00,38,8.80
2006,09,23,00,39,8.80
2006,09,23,00,40,8.80
2006,09,23,00,41,8.80
2006,09,23,00,42,8.90
2006,09,23,00,43,8.80
2006,09,23,00,44,8.80
2006,09,23,00,45,8.90
2006,09,23,00,46,8.80
2006,09,23,00,47,8.80
2006,09,23,00,48,8.80
2006,09,23,00,49,8.80
2006,09,23,00,50,8.80
2006,09,23,00,51,8.80
2006,09,23,00,52,8.80
2006,09,23,00,53,8.80
2006,09,23,00,54,8.80
2006,09,23,00,55,8.80
2006,09,23,00,56,8.70
2006,09,23,00,57,8.70
2006,09,23,00,58,8.70
2006,09,23,00,59,8.70
2006,09,23,01,00,8.70
2006,09,23,01,01,8.70
2006,09,23,01,02,8.70
2006,09,23,01,03,8.70
2006,09,23,01,04,8.70
2006,09,23,01,05,8.70
2006,09,23,01,06,8.70
2006,09,23,01,07,8.70
2006,09,23,01,08,8.60
2006,09,23,01,09,8.60
2006,09,23,01,10,8.60
2006,09,23,01,11,8.60
2006,09,23,01,12,8.60
2006,09,23,01,13,8.60
2006,09,23,01,14,8.60
2006,09,23,01,15,8.60
2006,09,23,01,16,8.50
2006,09,23,01,17,8.50
2006,09,23,01,18,8.40
2006,09,23,01,19,8.40
2006,09,23,01,20,8.40
2006,09,23,01,21,8.40
2006,09,23,01,22,8.40
2006,09,23,01,23,8.30
2006,09,23,01,24,8.30
2006,09,23,01,25,8.30
2006,09,23,01,26,8.30
2006,09,23,01,27,8.20
2006,09,23,01,28,8.20
2006,09,23,01,29,8.20
2006,09,23,01,30,8.20
2006,09,23,01,31,8.20
2006,09,23,01,32,8.20
2006,09,23,01,33,8.20
2006,09,23,01,34,8.20
2006,09,23,01,35,8.10
2006,09,23,01,36,8.10
2006,09,23,01,37,8.10
2006,09,23,01,38,8.10
2006,09,23,01,39,8.10
2006,09,23,01,40,8.10
2006,09,23,01,41,8.10
2006,09,23,01,42,8.10
2006,09,23,01,43,8.00
2006,09,23,01,44,8.00
2006,09,23,01,45,8.00
2006,09,23,01,46,8.00
2006,09,23,01,47,8.00
2006,09,23,01,48,8.00
2006,09,23,01,49,7.90
2006,09,23,01,50,7.90
2006,09,23,01,51,7.90
2006,09,23,01,52,7.90
2006,09,23,01,53,7.90
2006,09,23,01,54,7.90
2006,09,23,01,55,7.80
2006,09,23,01,56,7.80
2006,09,23,01,57,7.80
2006,09,23,01,58,7.80
2006,09,23,01,59,7.80
2006,09,23,02,00,7.80
2006,09,23,02,01,7.80
2006,09,23,02,02,7.70
2006,09,23,02,03,7.70
2006,09,23,02,04,7.70
2006,09,23,02,05,7.70
2006,09,23,02,06,7.70
2006,09,23,02,07,7.70
2006,09,23,02,08,7.70
2006,09,23,02,09,7.70
2006,09,23,02,10,7.70
2006,09,23,02,11,7.70
2006,09,23,02,12,7.70
2006,09,23,02,13,7.70
2006,09,23,02,14,7.70
2006,09,23,02,15,7.70
2006,09,23,02,16,7.70
2006,09,23,02,17,7.70
2006,09,23,02,18,7.70
2006,09,23,02,19,7.70
2006,09,23,02,20,7.70
2006,09,23,02,21,7.70
2006,09,23,02,22,7.70
2006,09,23,02,23,7.70
2006,09,23,02,24,7.70
2006,09,23,02,25,7.70
2006,09,23,02,26,7.70
2006,09,23,02,27,7.70
2006,09,23,02,28,7.60
2006,09,23,02,29,7.60
2006,09,23,02,30,7.60
2006,09,23,02,31,7.60
2006,09,23,02,32,7.60
2006,09,23,02,33,7.60
2006,09,23,02,34,7.60
2006,09,23,02,35,7.50
2006,09,23,02,36,7.50
2006,09,23,02,37,7.50
2006,09,23,02,38,7.50
2006,09,23,02,39,7.50
2006,09,23,02,40,7.50
2006,09,23,02,41,7.50
2006,09,23,02,42,7.40
2006,09,23,02,43,7.40
2006,09,23,02,44,7.40
2006,09,23,02,45,7.40
2006,09,23,02,46,7.40
2006,09,23,02,47,7.40
2006,09,23,02,48,7.40
2006,09,23,02,49,7.40
2006,09,23,02,50,7.40
2006,09,23,02,51,7.40
2006,09,23,02,52,7.40
2006,09,23,02,53,7.40
2006,09,23,02,54,7.30
2006,09,23,02,55,7.30
2006,09,23,02,56,7.30
2006,09,23,02,57,7.30
2006,09,23,02,58,7.30
2006,09,23,02,59,7.30
2006,09,23,03,00,7.30
2006,09,23,03,01,7.30
2006,09,23,03,02,7.30
2006,09,23,03,03,7.30
2006,09,23,03,04,7.30
2006,09,23,03,05,7.30
2006,09,23,03,06,7.30
2006,09,23,03,07,7.30
2006,09,23,03,08,7.30
2006,09,23,03,09,7.30
2006,09,23,03,10,7.30
2006,09,23,03,11,7.30
2006,09,23,03,12,7.30
2006,09,23,03,13,7.30
2006,09,23,03,14,7.30
2006,09,23,03,15,7.30
2006,09,23,03,16,7.30
2006,09,23,03,17,7.30
2006,09,23,03,18,7.30
2006,09,23,03,19,7.30
2006,09,23,03,20,7.30
2006,09,23,03,21,7.30
2006,09,23,03,22,7.30
2006,09,23,03,23,7.30
2006,09,23,03,24,7.30
2006,09,23,03,25,7.40
2006,09,23,03,26,7.40
2006,09,23,03,27,7.40
2006,09,23,03,28,7.40
2006,09,23,03,29,7.50
2006,09,23,03,30,7.50
2006,09,23,03,31,7.50
2006,09,23,03,32,7.50
2006,09,23,03,33,7.50
2006,09,23,03,34,7.50
2006,09,23,03,35,7.50
2006,09,23,03,36,7.50
2006,09,23,03,37,7.50
2006,09,23,03,38,7.50
2006,09,23,03,39,7.50
2006,09,23,03,40,7.50
2006,09,23,03,41,7.40
2006,09,23,03,42,7.40
2006,09,23,03,43,7.40
2006,09,23,03,44,7.40
2006,09,23,03,45,7.40
2006,09,23,03,46,7.40
2006,09,23,03,47,7.30
2006,09,23,03,48,7.30
2006,09,23,03,49,7.30
2006,09,23,03,50,7.30
2006,09,23,03,51,7.20
2006,09,23,03,52,7.20
2006,09,23,03,53,7.20
2006,09,23,03,54,7.20
2006,09,23,03,55,7.20
2006,09,23,03,56,7.20
2006,09,23,03,57,7.20
2006,09,23,03,58,7.20
2006,09,23,03,59,7.20
2006,09,23,04,00,7.20
2006,09,23,04,01,7.20
2006,09,23,04,02,7.20
2006,09,23,04,03,7.20
2006,09,23,04,04,7.20
2006,09,23,04,05,7.20
2006,09,23,04,06,7.20
2006,09,23,04,07,7.20
2006,09,23,04,08,7.20
2006,09,23,04,09,7.20
2006,09,23,04,10,7.20
2006,09,23,04,11,7.20
2006,09,23,04,12,7.20
2006,09,23,04,13,7.20
2006,09,23,04,14,7.20
2006,09,23,04,15,7.20
2006,09,23,04,16,7.10
2006,09,23,04,17,7.10
2006,09,23,04,18,7.10
2006,09,23,04,19,7.10
2006,09,23,04,20,7.10
2006,09,23,04,21,7.10
2006,09,23,04,22,7.10
2006,09,23,04,23,7.10
2006,09,23,04,24,7.10
2006,09,23,04,25,7.10
2006,09,23,04,26,7.10
2006,09,23,04,27,7.10
2006,09,23,04,28,7.10
2006,09,23,04,29,7.10
2006,09,23,04,30,7.10
2006,09,23,04,31,7.10
2006,09,23,04,32,7.20
2006,09,23,04,33,7.10
2006,09,23,04,34,7.10
2006,09,23,04,35,7.10
2006,09,23,04,36,7.10
2006,09,23,04,37,7.10
2006,09,23,04,38,7.10
2006,09,23,04,39,7.10
2006,09,23,04,40,7.10
2006,09,23,04,41,7.10
2006,09,23,04,42,7.10
2006,09,23,04,43,7.10
2006,09,23,04,44,7.10
2006,09,23,04,45,7.10
2006,09,23,04,46,7.00
2006,09,23,04,47,7.00
2006,09,23,04,48,7.00
2006,09,23,04,49,7.00
2006,09,23,04,50,6.90
2006,09,23,04,51,6.90
2006,09,23,04,52,6.90
2006,09,23,04,53,6.90
2006,09,23,04,54,6.90
2006,09,23,04,55,6.90
2006,09,23,04,56,6.90
2006,09,23,04,57,6.90
2006,09,23,04,58,6.90
2006,09,23,04,59,6.90
2006,09,23,05,00,6.90
2006,09,23,05,01,6.90
2006,09,23,05,02,6.90
2006,09,23,05,03,6.90
2006,09,23,05,04,7.00
2006,09,23,05,05,6.90
2006,09,23,05,06,7.00
2006,09,23,05,07,6.90
2006,09,23,05,08,6.90
2006,09,23,05,09,6.90
2006,09,23,05,10,6.90
2006,09,23,05,11,6.90
2006,09,23,05,12,6.90
2006,09,23,05,13,6.90
2006,09,23,05,14,6.90
2006,09,23,05,15,6.90
2006,09,23,05,16,6.90
2006,09,23,05,17,6.90
2006,09,23,05,18,6.80
2006,09,23,05,19,6.80
2006,09,23,05,20,6.80
2006,09,23,05,21,6.80
2006,09,23,05,22,6.80
2006,09,23,05,23,6.80
2006,09,23,05,24,6.80
2006,09,23,05,25,6.80
2006,09,23,05,26,6.80
2006,09,23,05,27,6.80
2006,09,23,05,28,6.80
2006,09,23,05,29,6.90
2006,09,23,05,30,6.90
2006,09,23,05,31,6.90
2006,09,23,05,32,6.90
2006,09,23,05,33,6.90
2006,09,23,05,34,6.90
2006,09,23,05,35,6.90
2006,09,23,05,36,6.90
2006,09,23,05,37,6.90
2006,09,23,05,38,6.80
2006,09,23,05,39,6.80
2006,09,23,05,40,6.80
2006,09,23,05,41,6.80
2006,09,23,05,42,6.80
2006,09,23,05,43,6.70
2006,09,23,05,44,6.70
2006,09,23,05,45,6.70
2006,09,23,05,46,6.70
2006,09,23,05,47,6.70
2006,09,23,05,48,6.70
2006,09,23,05,49,6.70
2006,09,23,05,50,6.70
2006,09,23,05,51,6.70
2006,09,23,05,52,6.60
2006,09,23,05,53,6.60
2006,09,23,05,54,6.60
2006,09,23,05,55,6.60
2006,09,23,05,56,6.60
2006,09,23,05,57,6.60
2006,09,23,05,58,6.60
2006,09,23,05,59,6.60
2006,09,23,06,00,6.60
2006,09,23,06,01,6.60
2006,09,23,06,02,6.60
2006,09,23,06,03,6.60
2006,09,23,06,04,6.60
2006,09,23,06,05,6.60
2006,09,23,06,06,6.50
2006,09,23,06,07,6.50
2006,09,23,06,08,6.50
2006,09,23,06,09,6.50
2006,09,23,06,10,6.50
2006,09,23,06,11,6.50
2006,09,23,06,12,6.50
2006,09,23,06,13,6.50
2006,09,23,06,14,6.50
2006,09,23,06,15,6.50
2006,09,23,06,16,6.50
2006,09,23,06,17,6.50
2006,09,23,06,18,6.50
2006,09,23,06,19,6.50
2006,09,23,06,20,6.50
2006,09,23,06,21,6.50
2006,09,23,06,22,6.50
2006,09,23,06,23,6.50
2006,09,23,06,24,6.50
2006,09,23,06,25,6.50
2006,09,23,06,26,6.50
2006,09,23,06,27,6.50
2006,09,23,06,28,6.50
2006,09,23,06,29,6.50
2006,09,23,06,30,6.50
2006,09,23,06,31,6.50
2006,09,23,06,32,6.50
2006,09,23,06,33,6.50
2006,09,23,06,34,6.50
2006,09,23,06,35,6.40
2006,09,23,06,36,6.40
2006,09,23,06,37,6.40
2006,09,23,06,38,6.40
2006,09,23,06,39,6.40
2006,09,23,06,40,6.40
2006,09,23,06,41,6.40
2006,09,23,06,42,6.40
2006,09,23,06,43,6.40
2006,09,23,06,44,6.40
2006,09,23,06,45,6.40
2006,09,23,06,46,6.40
2006,09,23,06,47,6.40
2006,09,23,06,48,6.40
2006,09,23,06,49,6.40
2006,09,23,06,50,6.40
2006,09,23,06,51,6.40
2006,09,23,06,52,6.40
2006,09,23,06,53,6.40
2006,09,23,06,54,6.40
2006,09,23,06,55,6.40
2006,09,23,06,56,6.40
2006,09,23,06,57,6.40
2006,09,23,06,58,6.40
2006,09,23,06,59,6.40
2006,09,23,07,00,6.40
2006,09,23,07,01,6.40
2006,09,23,07,02,6.40
2006,09,23,07,03,6.40
2006,09,23,07,04,6.40
2006,09,23,07,05,6.40
2006,09,23,07,06,6.40
2006,09,23,07,07,6.40
2006,09,23,07,08,6.40
2006,09,23,07,09,6.40
2006,09,23,07,10,6.40
2006,09,23,07,11,6.40
2006,09,23,07,12,6.40
2006,09,23,07,13,6.30
2006,09,23,07,14,6.30
2006,09,23,07,15,6.30
2006,09,23,07,16,6.30
2006,09,23,07,17,6.30
2006,09,23,07,18,6.30
2006,09,23,07,19,6.30
2006,09,23,07,20,6.30
2006,09,23,07,21,6.30
2006,09,23,07,22,6.30
2006,09,23,07,23,6.30
2006,09,23,07,24,6.30
2006,09,23,07,25,6.30
2006,09,23,07,26,6.30
2006,09,23,07,27,6.30
2006,09,23,07,28,6.30
2006,09,23,07,29,6.30
2006,09,23,07,30,6.30
2006,09,23,07,31,6.30
2006,09,23,07,32,6.30
2006,09,23,07,33,6.40
2006,09,23,07,34,6.40
2006,09,23,07,35,6.40
2006,09,23,07,36,6.40
2006,09,23,07,37,6.50
2006,09,23,07,38,6.50
2006,09,23,07,39,6.60
2006,09,23,07,40,6.60
2006,09,23,07,41,6.60
2006,09,23,07,42,6.70
2006,09,23,07,43,6.70
2006,09,23,07,44,6.70
2006,09,23,07,45,6.70
2006,09,23,07,46,6.70
2006,09,23,07,47,6.70
2006,09,23,07,48,6.70
2006,09,23,07,49,6.80
2006,09,23,07,50,6.80
2006,09,23,07,51,6.80
2006,09,23,07,52,6.80
2006,09,23,07,53,6.90
2006,09,23,07,54,6.90
2006,09,23,07,55,6.90
2006,09,23,07,56,7.00
2006,09,23,07,57,7.00
2006,09,23,07,58,7.00
2006,09,23,07,59,7.10
2006,09,23,08,00,7.10
2006,09,23,08,01,7.20
2006,09,23,08,02,7.20
2006,09,23,08,03,7.20
2006,09,23,08,04,7.30
2006,09,23,08,05,7.30
2006,09,23,08,06,7.40
2006,09,23,08,07,7.50
2006,09,23,08,08,7.60
2006,09,23,08,09,7.70
2006,09,23,08,10,7.80
2006,09,23,08,11,7.90
2006,09,23,08,12,8.00
2006,09,23,08,13,8.20
2006,09,23,08,14,8.30
2006,09,23,08,15,8.40
2006,09,23,08,16,8.60
2006,09,23,08,17,8.70
2006,09,23,08,18,8.90
2006,09,23,08,19,9.00
2006,09,23,08,20,9.20
2006,09,23,08,21,9.30
2006,09,23,08,22,9.40
2006,09,23,08,23,9.50
2006,09,23,08,24,9.70
2006,09,23,08,25,9.80
2006,09,23,08,26,9.90
2006,09,23,08,27,10.10
2006,09,23,08,28,10.20
2006,09,23,08,29,10.20
2006,09,23,08,30,10.30
2006,09,23,08,31,10.30
2006,09,23,08,32,10.30
2006,09,23,08,33,10.40
2006,09,23,08,34,10.40
2006,09,23,08,35,10.50
2006,09,23,08,36,10.60
2006,09,23,08,37,10.70
2006,09,23,08,38,10.80
2006,09,23,08,39,10.90
2006,09,23,08,40,11.00
2006,09,23,08,41,11.10
2006,09,23,08,42,11.20
2006,09,23,08,43,11.30
2006,09,23,08,44,11.40
2006,09,23,08,45,11.50
2006,09,23,08,46,11.60
2006,09,23,08,47,11.70
2006,09,23,08,48,11.80
2006,09,23,08,49,11.90
2006,09,23,08,50,12.10
2006,09,23,08,51,12.20
2006,09,23,08,52,12.40
2006,09,23,08,53,12.50
2006,09,23,08,54,12.70
2006,09,23,08,55,12.70
2006,09,23,08,56,12.80
2006,09,23,08,57,12.80
2006,09,23,08,58,12.90
2006,09,23,08,59,12.90
2006,09,23,09,00,13.00
2006,09,23,09,01,13.10
2006,09,23,09,02,13.20
2006,09,23,09,03,13.30
2006,09,23,09,04,13.40
2006,09,23,09,05,13.60
2006,09,23,09,06,13.80
2006,09,23,09,07,13.90
2006,09,23,09,08,14.00
2006,09,23,09,09,14.10
2006,09,23,09,10,14.20
2006,09,23,09,11,14.30
2006,09,23,09,12,14.40
2006,09,23,09,13,14.40
2006,09,23,09,14,14.40
2006,09,23,09,15,14.40
2006,09,23,09,16,14.40
2006,09,23,09,17,14.40
2006,09,23,09,18,14.50
2006,09,23,09,19,14.50
2006,09,23,09,20,14.50
2006,09,23,09,21,14.50
2006,09,23,09,22,14.60
2006,09,23,09,23,14.60
2006,09,23,09,24,14.60
2006,09,23,09,25,14.60
2006,09,23,09,26,14.70
2006,09,23,09,27,14.70
2006,09,23,09,28,14.80
2006,09,23,09,29,14.80
2006,09,23,09,30,14.90
2006,09,23,09,31,14.90
2006,09,23,09,32,15.00
2006,09,23,09,33,15.00
2006,09,23,09,34,15.00
2006,09,23,09,35,15.00
2006,09,23,09,36,15.00
2006,09,23,09,37,15.00
2006,09,23,09,38,15.00
2006,09,23,09,39,15.10
2006,09,23,09,40,15.10
2006,09,23,09,41,15.20
2006,09,23,09,42,15.30
2006,09,23,09,43,15.30
2006,09,23,09,44,15.40
2006,09,23,09,45,15.40
2006,09,23,09,46,15.50
2006,09,23,09,47,15.50
2006,09,23,09,48,15.60
2006,09,23,09,49,15.70
2006,09,23,09,50,15.80
2006,09,23,09,51,15.80
2006,09,23,09,52,15.80
2006,09,23,09,53,15.90
2006,09,23,09,54,16.00
2006,09,23,09,55,16.10
2006,09,23,09,56,16.30
2006,09,23,09,57,16.50
2006,09,23,09,58,16.60
2006,09,23,09,59,16.60
2006,09,23,10,00,16.60
2006,09,23,10,01,16.60
2006,09,23,10,02,16.60
2006,09,23,10,03,16.60
2006,09,23,10,04,16.60
2006,09,23,10,05,16.60
2006,09,23,10,06,16.60
2006,09,23,10,07,16.50
2006,09,23,10,08,16.50
2006,09,23,10,09,16.60
2006,09,23,10,10,16.60
2006,09,23,10,11,16.70
2006,09,23,10,12,16.70
2006,09,23,10,13,16.70
2006,09,23,10,14,16.80
2006,09,23,10,15,16.80
2006,09,23,10,16,16.80
2006,09,23,10,17,16.80
2006,09,23,10,18,16.80
2006,09,23,10,19,16.70
2006,09,23,10,20,16.70
2006,09,23,10,21,16.70
2006,09,23,10,22,16.70
2006,09,23,10,23,16.70
2006,09,23,10,24,16.80
2006,09,23,10,25,16.90
2006,09,23,10,26,16.90
2006,09,23,10,27,17.00
2006,09,23,10,28,17.00
2006,09,23,10,29,17.10
2006,09,23,10,30,17.20
2006,09,23,10,31,17.30
2006,09,23,10,32,17.30
2006,09,23,10,33,17.40
2006,09,23,10,34,17.40
2006,09,23,10,35,17.30
2006,09,23,10,36,17.30
2006,09,23,10,37,17.30
2006,09,23,10,38,17.30
2006,09,23,10,39,17.20
2006,09,23,10,40,17.20
2006,09,23,10,41,17.20
2006,09,23,10,42,17.20
2006,09,23,10,43,17.20
2006,09,23,10,44,17.20
2006,09,23,10,45,17.20
2006,09,23,10,46,17.20
2006,09,23,10,47,17.30
2006,09,23,10,48,17.20
2006,09,23,10,49,17.10
2006,09,23,10,50,17.10
2006,09,23,10,51,17.20
2006,09,23,10,52,17.20
2006,09,23,10,53,17.30
2006,09,23,10,54,17.30
2006,09,23,10,55,17.30
2006,09,23,10,56,17.30
2006,09,23,10,57,17.30
2006,09,23,10,58,17.30
2006,09,23,10,59,17.30
2006,09,23,11,00,17.20
2006,09,23,11,01,17.20
2006,09,23,11,02,17.20
2006,09,23,11,03,17.30
2006,09,23,11,04,17.30
2006,09,23,11,05,17.40
2006,09,23,11,06,17.40
2006,09,23,11,07,17.50
2006,09,23,11,08,17.60
2006,09,23,11,09,17.60
2006,09,23,11,10,17.70
2006,09,23,11,11,17.70
2006,09,23,11,12,17.80
2006,09,23,11,13,17.80
2006,09,23,11,14,17.80
2006,09,23,11,15,17.80
2006,09,23,11,16,17.80
2006,09,23,11,17,17.80
2006,09,23,11,18,17.80
2006,09,23,11,19,17.80
2006,09,23,11,20,17.80
2006,09,23,11,21,17.90
2006,09,23,11,22,17.90
2006,09,23,11,23,17.90
2006,09,23,11,24,17.90
2006,09,23,11,25,17.90
2006,09,23,11,26,17.90
2006,09,23,11,27,17.90
2006,09,23,11,28,17.80
2006,09,23,11,29,17.90
2006,09,23,11,30,17.90
2006,09,23,11,31,18.00
2006,09,23,11,32,18.00
2006,09,23,11,33,18.10
2006,09,23,11,34,18.10
2006,09,23,11,35,18.00
2006,09,23,11,36,17.90
2006,09,23,11,37,17.90
2006,09,23,11,38,17.90
2006,09,23,11,39,17.90
2006,09,23,11,40,17.90
2006,09,23,11,41,17.90
2006,09,23,11,42,17.90
2006,09,23,11,43,17.90
2006,09,23,11,44,17.90
2006,09,23,13,10,20.40
2006,09,23,13,11,20.30
2006,09,23,13,12,20.30
2006,09,23,13,13,20.30
2006,09,23,13,14,20.40
2006,09,23,13,15,20.50
2006,09,23,13,16,20.40
2006,09,23,13,17,20.40
2006,09,23,13,18,20.40
2006,09,23,13,19,20.40
2006,09,23,13,20,20.30
2006,09,23,13,21,20.30
2006,09,23,13,22,20.30
2006,09,23,13,23,20.30
2006,09,23,13,24,20.40
2006,09,23,13,25,20.50
2006,09,23,13,26,20.60
2006,09,23,13,27,20.60
2006,09,23,13,28,20.60
2006,09,23,13,29,20.60
2006,09,23,13,30,20.60
2006,09,23,13,31,20.60
2006,09,23,13,32,20.70
2006,09,23,13,33,20.60
2006,09,23,13,34,20.50
2006,09,23,13,35,20.50
2006,09,23,13,36,20.60
2006,09,23,13,37,20.70
2006,09,23,13,38,20.80
2006,09,23,13,39,20.80
2006,09,23,13,40,20.80
2006,09,23,13,41,20.80
2006,09,23,13,42,20.80
2006,09,23,13,43,20.80
2006,09,23,13,44,20.80
2006,09,23,13,45,20.80
2006,09,23,13,46,20.80
2006,09,23,13,47,20.80
2006,09,23,13,48,20.90
2006,09,23,13,49,21.00
2006,09,23,13,50,21.10
2006,09,23,13,51,21.10
2006,09,23,13,52,21.20
2006,09,23,13,53,21.20
2006,09,23,13,54,21.10
2006,09,23,13,55,21.20
2006,09,23,13,56,21.10
2006,09,23,13,57,21.10
2006,09,23,13,58,21.20
2006,09,23,13,59,21.20
2006,09,23,14,00,21.20
2006,09,23,14,01,21.30
2006,09,23,14,02,21.40
2006,09,23,14,03,21.50
2006,09,23,14,04,21.50
2006,09,23,14,05,21.50
2006,09,23,14,06,21.50
2006,09,23,14,07,21.50
2006,09,23,14,08,21.60
2006,09,23,14,09,21.50
2006,09,23,14,10,21.40
2006,09,23,14,11,21.40
2006,09,23,14,12,21.40
2006,09,23,14,13,21.30
2006,09,23,14,14,21.30
2006,09,23,14,15,21.30
2006,09,23,14,16,21.30
2006,09,23,14,17,21.30
2006,09,23,14,18,21.30
2006,09,23,14,19,21.30
2006,09,23,14,20,21.40
2006,09,23,14,21,21.40
2006,09,23,14,22,21.30
2006,09,23,14,23,21.30
2006,09,23,14,24,21.30
2006,09,23,14,25,21.30
2006,09,23,14,26,21.30
2006,09,23,14,27,21.40
2006,09,23,14,28,21.50
2006,09,23,14,29,21.50
2006,09,23,14,30,21.60
2006,09,23,14,31,21.60
2006,09,23,14,32,21.50
2006,09,23,14,33,21.50
2006,09,23,14,34,21.50
2006,09,23,14,35,21.50
2006,09,23,14,36,21.60
2006,09,23,14,37,21.60
2006,09,23,14,38,21.60
2006,09,23,14,39,21.50
2006,09,23,14,40,21.30
2006,09,23,14,41,21.00
2006,09,23,14,42,20.90
2006,09,23,14,43,20.90
2006,09,23,14,44,20.90
2006,09,23,14,45,21.00
2006,09,23,14,46,21.10
2006,09,23,14,47,21.20
2006,09,23,14,48,21.20
2006,09,23,14,49,21.20
2006,09,23,14,50,21.20
2006,09,23,14,51,21.20
2006,09,23,14,52,21.30
2006,09,23,14,53,21.30
2006,09,23,14,54,21.40
2006,09,23,14,55,21.40
2006,09,23,14,56,21.50
2006,09,23,14,57,21.60
2006,09,23,14,58,21.60
2006,09,23,14,59,21.70
2006,09,23,15,00,21.80
2006,09,23,15,01,21.80
2006,09,23,15,02,21.80
2006,09,23,15,03,21.80
2006,09,23,15,04,21.80
2006,09,23,15,05,21.80
2006,09,23,15,06,21.80
2006,09,23,15,07,21.80
2006,09,23,15,08,21.70
2006,09,23,15,09,21.70
2006,09,23,15,10,21.70
2006,09,23,15,11,21.60
2006,09,23,15,12,21.60
2006,09,23,15,13,21.60
2006,09,23,15,14,21.50
2006,09,23,15,15,21.40
2006,09,23,15,16,21.40
2006,09,23,15,17,21.40
2006,09,23,15,18,21.30
2006,09,23,15,19,21.30
2006,09,23,15,20,21.30
2006,09,23,15,21,21.40
2006,09,23,15,22,21.40
2006,09,23,15,23,21.30
2006,09,23,15,24,21.30
2006,09,23,15,25,21.30
2006,09,23,15,26,21.20
2006,09,23,15,27,21.20
2006,09,23,15,28,21.30
2006,09,23,15,29,21.30
2006,09,23,15,30,21.30
2006,09,23,15,31,21.40
2006,09,23,15,32,21.40
2006,09,23,15,33,21.50
2006,09,23,15,34,21.40
2006,09,23,15,35,21.40
2006,09,23,15,36,21.40
2006,09,23,15,37,21.40
2006,09,23,15,38,21.40
2006,09,23,15,39,21.40
2006,09,23,15,40,21.30
2006,09,23,15,41,21.40
2006,09,23,15,42,21.40
2006,09,23,15,43,21.40
2006,09,23,15,44,21.40
2006,09,23,15,45,21.30
2006,09,23,15,46,21.20
2006,09,23,15,47,21.10
2006,09,23,15,48,21.10
2006,09,23,15,49,20.90
2006,09,23,15,50,20.70
2006,09,23,15,51,20.60
2006,09,23,15,52,20.50
2006,09,23,15,53,20.40
2006,09,23,15,54,20.30
2006,09,23,15,55,20.20
2006,09,23,15,56,20.10
2006,09,23,15,57,20.00
2006,09,23,15,58,20.00
2006,09,23,15,59,20.00
2006,09,23,16,00,20.00
2006,09,23,16,01,20.00
2006,09,23,16,02,19.90
2006,09,23,16,03,19.70
2006,09,23,16,04,19.70
2006,09,23,16,05,19.70
2006,09,23,16,06,19.70
2006,09,23,16,07,19.60
2006,09,23,16,08,19.60
2006,09,23,16,09,19.60
2006,09,23,16,10,19.70
2006,09,23,16,11,19.70
2006,09,23,16,12,19.70
2006,09,23,16,13,19.70
2006,09,23,16,14,19.60
2006,09,23,16,15,19.60
2006,09,23,16,16,19.60
2006,09,23,16,17,19.60
2006,09,23,16,18,19.60
2006,09,23,16,19,19.60
2006,09,23,16,20,19.50
2006,09,23,16,21,19.40
2006,09,23,16,22,19.30
2006,09,23,16,23,19.30
2006,09,23,16,24,19.30
2006,09,23,16,25,19.20
2006,09,23,16,26,19.20
2006,09,23,16,27,19.20
2006,09,23,16,28,19.20
2006,09,23,16,29,19.20
2006,09,23,16,30,19.20
2006,09,23,16,31,19.10
2006,09,23,16,32,19.10
2006,09,23,16,33,19.10
2006,09,23,16,34,19.10
2006,09,23,16,35,19.10
2006,09,23,16,36,19.10
2006,09,23,16,37,19.10
2006,09,23,16,38,19.10
2006,09,23,16,39,19.10
2006,09,23,16,40,19.20
2006,09,23,16,41,19.20
2006,09,23,16,42,19.20
2006,09,23,16,43,19.20
2006,09,23,16,44,19.20
2006,09,23,16,45,19.20
2006,09,23,16,46,19.20
2006,09,23,16,47,19.30
2006,09,23,16,48,19.30
2006,09,23,16,49,19.30
2006,09,23,16,50,19.30
2006,09,23,16,51,19.30
2006,09,23,16,52,19.30
2006,09,23,16,53,19.20
2006,09,23,16,54,19.30
2006,09,23,16,55,19.20
2006,09,23,16,56,19.20
2006,09,23,16,57,19.20
2006,09,23,16,58,19.30
2006,09,23,16,59,19.30
2006,09,23,17,00,19.30
2006,09,23,17,01,19.30
2006,09,23,17,02,19.30
2006,09,23,17,03,19.30
2006,09,23,17,04,19.30
2006,09,23,17,05,19.40
2006,09,23,17,06,19.40
2006,09,23,17,07,19.40
2006,09,23,17,08,19.40
2006,09,23,17,09,19.40
2006,09,23,17,10,19.40
2006,09,23,17,11,19.40
2006,09,23,17,12,19.40
2006,09,23,17,13,19.40
2006,09,23,17,14,19.40
2006,09,23,17,15,19.40
2006,09,23,17,16,19.40
2006,09,23,17,17,19.30
2006,09,23,17,18,19.30
2006,09,23,17,19,19.20
2006,09,23,17,20,19.20
2006,09,23,17,21,19.20
2006,09,23,17,22,19.30
2006,09,23,17,23,19.30
2006,09,23,17,24,19.30
2006,09,23,17,25,19.30
2006,09,23,17,26,19.40
2006,09,23,17,27,19.40
2006,09,23,17,28,19.40
2006,09,23,17,29,19.40
2006,09,23,17,30,19.40
2006,09,23,17,31,19.40
2006,09,23,17,32,19.40
2006,09,23,17,33,19.40
2006,09,23,17,34,19.40
2006,09,23,17,35,19.40
2006,09,23,17,36,19.40
2006,09,23,17,37,19.40
2006,09,23,17,38,19.40
2006,09,23,17,39,19.40
2006,09,23,17,40,19.40
2006,09,23,17,41,19.40
2006,09,23,17,42,19.30
2006,09,23,17,43,19.20
2006,09,23,17,44,19.20
2006,09,23,17,45,19.10
2006,09,23,17,46,18.90
2006,09,23,17,47,18.80
2006,09,23,17,48,18.70
2006,09,23,17,49,18.60
2006,09,23,17,50,18.60
2006,09,23,17,51,18.50
2006,09,23,17,52,18.50
2006,09,23,17,53,18.40
2006,09,23,17,54,18.40
2006,09,23,17,55,18.40
2006,09,23,17,56,18.40
2006,09,23,17,57,18.40
2006,09,23,17,58,18.30
2006,09,23,17,59,18.30
2006,09,23,18,00,18.30
2006,09,23,18,01,18.20
2006,09,23,18,02,18.20
2006,09,23,18,03,18.20
2006,09,23,18,04,18.20
2006,09,23,18,05,18.20
2006,09,23,18,06,18.10
2006,09,23,18,07,18.10
2006,09,23,18,08,18.00
2006,09,23,18,09,18.00
2006,09,23,18,10,18.00
2006,09,23,18,11,17.90
2006,09,23,18,12,17.90
2006,09,23,18,13,17.90
2006,09,23,18,14,17.80
2006,09,23,18,15,17.80
2006,09,23,18,16,17.80
2006,09,23,18,17,17.80
2006,09,23,18,18,17.80
2006,09,23,18,19,17.80
2006,09,23,18,20,17.80
2006,09,23,18,21,17.80
2006,09,23,18,22,17.90
2006,09,23,18,23,17.80
2006,09,23,18,24,17.80
2006,09,23,18,25,17.80
2006,09,23,18,26,17.70
2006,09,23,18,27,17.70
2006,09,23,18,28,17.70
2006,09,23,18,29,17.60
2006,09,23,18,30,17.60
2006,09,23,18,31,17.60
2006,09,23,18,32,17.50
2006,09,23,18,33,17.50
2006,09,23,18,34,17.50
2006,09,23,18,35,17.50
2006,09,23,18,36,17.50
2006,09,23,18,37,17.50
2006,09,23,18,38,17.50
2006,09,23,18,39,17.50
2006,09,23,18,40,17.50
2006,09,23,18,41,17.40
2006,09,23,18,42,17.40
2006,09,23,18,43,17.30
2006,09,23,18,44,17.30
2006,09,23,18,45,17.30
2006,09,23,18,46,17.30
2006,09,23,18,47,17.20
2006,09,23,18,48,17.20
2006,09,23,18,49,17.20
2006,09,23,18,50,17.20
2006,09,23,18,51,17.20
2006,09,23,18,52,17.20
2006,09,23,18,53,17.10
2006,09,23,18,54,17.10
2006,09,23,18,55,17.10
2006,09,23,18,56,17.00
2006,09,23,18,57,16.90
2006,09,23,18,58,16.90
2006,09,23,18,59,16.80
2006,09,23,19,00,16.80
2006,09,23,19,01,16.70
2006,09,23,19,02,16.70
2006,09,23,19,03,16.60
2006,09,23,19,04,16.60
2006,09,23,19,05,16.50
2006,09,23,19,06,16.50